Regional Weather Roundup
Issued by NWS Albany, NY

Home | Current Version | Previous Version | Text Only | Print | Product List | Glossary On
Versions: 1 2 3 4 5 6 7 8 9 10 11 12 13 14 15 16 17 18 19 20 21 22 23 24 25 26 27 28 29 30 31 32 33 34 35 36 37 38 39 40 41 42 43 44 45 46 47 48 49 50
000
ASUS41 KALY 030110
RWRALY

NEW YORK STATE HOURLY WEATHER ROUNDUP
NATIONAL WEATHER SERVICE ALBANY NY
900 PM EDT SAT MAY 02 2015

NOTE: "FAIR" INDICATES FEW OR NO CLOUDS BELOW 12,000 FEET WITH NO
SIGNIFICANT WEATHER AND/OR NO OBSTRUCTIONS TO VISIBILITY.

NYZ032-033-038>043-046>054-057>066-NYZ062>081-030200-
EAST


CITY           SKY/WX    TMP DP  RH WIND       PRES   REMARKS
ALBANY         MOCLDY    68  32  26 W16       29.92R
GLENS FALLS    CLOUDY    67  40  37 NW7       29.90R
POUGHKEEPSIE   CLEAR     62  43  49 SE5       29.94R
MONTGOMERY     MOCLDY    61  44  53 S8        29.94R
WHITE PLAINS   PTCLDY    50  39  66 S6        30.00R
ISLIP          PTCLDY    48  39  71 S7        30.01R
NEW YORK CITY  PTCLDY    51  38  60 S8        30.01R
CENTRAL PARK   PTCLDY    51  37  58 VRB6      30.04R
$$

NYZ005>009-017-018-044>046-055-056-030200-
CENTRAL


CITY           SKY/WX    TMP DP  RH WIND       PRES   REMARKS
FULTON         CLEAR     59  36  42 CALM      29.98R
SYRACUSE       PTCLDY    62  36  37 CALM      29.98R
ROME           CLEAR     55  36  48 NW6       29.99R
ELMIRA         PTCLDY    56  37  49 CALM      29.99R
BINGHAMTON     PTCLDY    58  34  40 N7        30.00R
MONTICELLO     PTCLDY    61  34  36 NW8       29.99R
$$

NYZ026>034-041>043-030200-
NORTH


CITY           SKY/WX    TMP DP  RH WIND       PRES   REMARKS
WATERTOWN      CLEAR     57  34  41 S5        29.96R
FORT DRUM      NOT AVBL
MASSENA        CLEAR     61  39  44 SW10      29.92R
SARANAC LAKE     N/A    N/A N/A N/A MISG      29.94R
PLATTSBURGH    MOCLDY    57  42  57 W5        29.90R
$$

NYZ001>004-010>016-019>021-030200-
WEST


CITY           SKY/WX    TMP DP  RH WIND       PRES   REMARKS
NIAGARA FALLS  PTCLDY    57  33  40 SW10      29.99S
BUFFALO        PTCLDY    53  35  50 SW9       30.01R
DUNKIRK        CLEAR     51  37  58 S3        30.01F
JAMESTOWN      CLEAR     59  28  31 W5        30.05R
WELLSVILLE     CLEAR     57  25  29 NW7       30.04R
ROCHESTER      PTCLDY    65  38  36 W7        29.99R
PENN YAN       PTCLDY    51  43  74 CALM      30.00R
$$

             KEY
       WCI = WIND CHILL INDEX
       VSB = VISIBILITY
       HX  = HEAT INDEX
$$


USA.gov is the U.S. government's official web portal to all federal, state and local government web resources and services.